• Em Portugal
  • Lista de países
  • Para 7 dias
  • Temperatura da água
  • Mapas de satélite
  • Mapa do tempo
  • Widgets de tempo
  • user-avatar
    Iniciar Sessão

    Previsão horária em Idjevan

    Hoje, 23 Novembro, Quinta-feira

    Tempo Temperatura Precipitação Vento Pressão Humidade
    00:00 +2°C° 0,1 mm 2 m/s 689 mmHg 78%
    01:00 +2°C° 0 mm 2 m/s 689 mmHg 77%
    02:00 +1°C° 0 mm 2 m/s 689 mmHg 77%
    03:00 +1°C° 0 mm 2 m/s 689 mmHg 76%
    04:00 +1°C° 0 mm 2 m/s 689 mmHg 76%
    05:00 +2°C° 0 mm 1 m/s 689 mmHg 75%
    06:00 +2°C° 0 mm 1 m/s 690 mmHg 74%
    07:00 +1°C° 0 mm 2 m/s 690 mmHg 72%
    08:00 +2°C° 0 mm 2 m/s 690 mmHg 70%
    09:00 +4°C° 0 mm 2 m/s 689 mmHg 61%
    10:00 +4°C° 0 mm 2 m/s 689 mmHg 57%
    11:00 +4°C° 0 mm 3 m/s 689 mmHg 52%
    12:00 +4°C° 0 mm 3 m/s 689 mmHg 48%
    13:00 +4°C° 0 mm 3 m/s 689 mmHg 49%
    14:00 +4°C° 0 mm 3 m/s 690 mmHg 50%
    15:00 +5°C° 0 mm 2 m/s 690 mmHg 50%
    16:00 +4°C° 0 mm 2 m/s 690 mmHg 54%
    17:00 +3°C° 0 mm 2 m/s 690 mmHg 58%
    18:00 +3°C° 0 mm 1 m/s 691 mmHg 61%
    19:00 +3°C° 0,1 mm 1 m/s 691 mmHg 66%
    20:00 +2°C° 0,1 mm 1 m/s 692 mmHg 70%
    21:00 +2°C° 0,1 mm 1 m/s 692 mmHg 75%
    22:00 +2°C° 0,1 mm 1 m/s 692 mmHg 77%
    23:00 +1°C° 0,1 mm 1 m/s 692 mmHg 79%

    Amanhã, 24 Novembro, Sexta-feira

    Tempo Temperatura Precipitação Vento Pressão Humidade
    00:00 +1°C° 0,1 mm 1 m/s 692 mmHg 81%
    01:00 +1°C° 0,1 mm 1 m/s 693 mmHg 82%
    02:00 +1°C° 0,1 mm 1 m/s 693 mmHg 82%
    03:00 +1°C° 0,1 mm 1 m/s 693 mmHg 83%
    04:00 0°C° 0,1 mm 1 m/s 693 mmHg 83%
    05:00 0°C° 0,1 mm 1 m/s 693 mmHg 84%
    06:00 0°C° 0,1 mm 1 m/s 693 mmHg 84%
    07:00 0°C° 0 mm 1 m/s 693 mmHg 80%
    08:00 +1°C° 0 mm 1 m/s 694 mmHg 76%
    09:00 +1°C° 0 mm 1 m/s 694 mmHg 72%
    10:00 +2°C° 0 mm 1 m/s 694 mmHg 68%
    11:00 +3°C° 0 mm 1 m/s 694 mmHg 63%
    12:00 +2°C° 0 mm 2 m/s 694 mmHg 59%
    13:00 +3°C° 0 mm 1 m/s 694 mmHg 59%
    14:00 +3°C° 0 mm 1 m/s 694 mmHg 59%
    15:00 +3°C° 0 mm 1 m/s 694 mmHg 59%
    16:00 +2°C° 0 mm 1 m/s 694 mmHg 62%
    17:00 +1°C° 0 mm 1 m/s 694 mmHg 66%
    18:00 -1°C° 0 mm 0 m/s 695 mmHg 69%
    19:00 0°C° 0 mm 1 m/s 695 mmHg 68%
    20:00 0°C° 0 mm 1 m/s 695 mmHg 68%
    21:00 0°C° 0 mm 1 m/s 695 mmHg 67%
    22:00 0°C° 0 mm 1 m/s 695 mmHg 66%
    23:00 0°C° 0 mm 1 m/s 695 mmHg 65%

    Depois de amanhã, 25 Novembro, Sábado

    Tempo Temperatura Precipitação Vento Pressão Humidade
    00:00 -1°C° 0 mm 1 m/s 695 mmHg 64%
    01:00 -1°C° 0 mm 1 m/s 695 mmHg 63%
    02:00 -3°C° 0 mm 2 m/s 696 mmHg 63%
    03:00 -3°C° 0 mm 2 m/s 696 mmHg 63%
    04:00 -3°C° 0 mm 2 m/s 696 mmHg 63%
    05:00 -3°C° 0 mm 2 m/s 697 mmHg 64%
    06:00 -3°C° 0 mm 2 m/s 697 mmHg 64%
    07:00 -2°C° 0 mm 2 m/s 698 mmHg 63%
    08:00 -1°C° 0 mm 2 m/s 699 mmHg 61%
    09:00 +1°C° 0 mm 2 m/s 699 mmHg 59%
    10:00 0°C° 0 mm 3 m/s 699 mmHg 55%
    11:00 +1°C° 0 mm 3 m/s 699 mmHg 52%
    12:00 +2°C° 0 mm 3 m/s 700 mmHg 48%
    13:00 +2°C° 0 mm 3 m/s 700 mmHg 48%
    14:00 +2°C° 0 mm 3 m/s 699 mmHg 48%
    15:00 +3°C° 0 mm 2 m/s 699 mmHg 47%
    16:00 +2°C° 0 mm 2 m/s 700 mmHg 51%
    17:00 -1°C° 0 mm 2 m/s 700 mmHg 54%
    18:00 0°C° 0 mm 1 m/s 701 mmHg 57%
    19:00 -2°C° 0 mm 2 m/s 701 mmHg 57%
    20:00 -2°C° 0 mm 2 m/s 701 mmHg 57%
    21:00 -3°C° 0 mm 2 m/s 701 mmHg 57%
    22:00 -3°C° 0 mm 2 m/s 701 mmHg 57%
    23:00 -1°C° 0 mm 1 m/s 701 mmHg 57%

    26 Novembro, Domingo

    Tempo Temperatura Precipitação Vento Pressão Humidade
    00:00 -1°C° 0 mm 1 m/s 701 mmHg 57%
    01:00 -1°C° 0 mm 1 m/s 701 mmHg 57%
    02:00 -1°C° 0 mm 1 m/s 701 mmHg 57%
    03:00 -1°C° 0 mm 1 m/s 701 mmHg 56%
    04:00 -2°C° 0 mm 1 m/s 701 mmHg 56%
    05:00 -2°C° 0 mm 1 m/s 701 mmHg 56%
    06:00 -2°C° 0 mm 1 m/s 701 mmHg 56%
    07:00 -1°C° 0 mm 1 m/s 701 mmHg 54%
    08:00 +1°C° 0 mm 1 m/s 701 mmHg 52%
    09:00 +2°C° 0 mm 1 m/s 701 mmHg 49%
    10:00 +3°C° 0 mm 1 m/s 700 mmHg 47%
    11:00 +4°C° 0 mm 1 m/s 700 mmHg 44%
    12:00 +5°C° 0 mm 1 m/s 699 mmHg 42%
    13:00 +5°C° 0 mm 1 m/s 698 mmHg 43%
    14:00 +5°C° 0 mm 1 m/s 698 mmHg 44%
    15:00 +5°C° 0 mm 1 m/s 698 mmHg 46%
    16:00 +4°C° 0 mm 1 m/s 698 mmHg 48%
    17:00 +2°C° 0 mm 1 m/s 698 mmHg 50%
    18:00 +1°C° 0 mm 1 m/s 698 mmHg 52%
    19:00 -1°C° 0 mm 2 m/s 698 mmHg 50%
    20:00 -1°C° 0 mm 2 m/s 698 mmHg 49%
    21:00 -1°C° 0 mm 2 m/s 698 mmHg 48%
    22:00 -1°C° 0 mm 2 m/s 698 mmHg 47%
    23:00 -1°C° 0 mm 2 m/s 698 mmHg 46%

    27 Novembro, Segunda-feira

    Tempo Temperatura Precipitação Vento Pressão Humidade
    00:00 -1°C° 0 mm 2 m/s 698 mmHg 45%
    01:00 -1°C° 0 mm 2 m/s 697 mmHg 45%
    02:00 -1°C° 0 mm 2 m/s 697 mmHg 44%
    03:00 -2°C° 0 mm 2 m/s 697 mmHg 44%
    04:00 -2°C° 0 mm 2 m/s 697 mmHg 44%
    05:00 -2°C° 0 mm 2 m/s 697 mmHg 44%
    06:00 -2°C° 0 mm 2 m/s 697 mmHg 44%
    07:00 +1°C° 0 mm 2 m/s 697 mmHg 43%
    08:00 +2°C° 0 mm 2 m/s 697 mmHg 42%
    09:00 +3°C° 0 mm 2 m/s 697 mmHg 41%
    10:00 +5°C° 0 mm 2 m/s 696 mmHg 39%
    11:00 +6°C° 0 mm 2 m/s 696 mmHg 37%
    12:00 +9°C° 0 mm 1 m/s 696 mmHg 35%
    13:00 +9°C° 0 mm 1 m/s 695 mmHg 35%
    14:00 +9°C° 0 mm 1 m/s 695 mmHg 36%
    15:00 +8°C° 0 mm 1 m/s 695 mmHg 36%
    16:00 +7°C° 0 mm 1 m/s 695 mmHg 38%
    17:00 +4°C° 0 mm 2 m/s 695 mmHg 40%
    18:00 +3°C° 0 mm 2 m/s 695 mmHg 43%
    19:00 +2°C° 0 mm 2 m/s 695 mmHg 43%
    20:00 +2°C° 0 mm 2 m/s 695 mmHg 43%
    21:00 +2°C° 0 mm 2 m/s 695 mmHg 43%
    22:00 +2°C° 0 mm 2 m/s 695 mmHg 43%
    23:00 +2°C° 0 mm 2 m/s 695 mmHg 44%

    28 Novembro, Terça-feira

    Tempo Temperatura Precipitação Vento Pressão Humidade
    00:00 +1°C° 0 mm 2 m/s 695 mmHg 44%
    01:00 +1°C° 0 mm 2 m/s 695 mmHg 45%
    02:00 +1°C° 0 mm 2 m/s 694 mmHg 46%
    03:00 +1°C° 0 mm 2 m/s 694 mmHg 47%
    04:00 +1°C° 0 mm 2 m/s 694 mmHg 48%
    05:00 +1°C° 0 mm 2 m/s 694 mmHg 48%
    06:00 +1°C° 0 mm 2 m/s 694 mmHg 49%
    07:00 +2°C° 0 mm 2 m/s 694 mmHg 48%
    08:00 +4°C° 0 mm 2 m/s 694 mmHg 47%
    09:00 +5°C° 0 mm 2 m/s 695 mmHg 46%
    10:00 +6°C° 0 mm 2 m/s 694 mmHg 45%
    11:00 +7°C° 0 mm 2 m/s 694 mmHg 43%
    12:00 +9°C° 0 mm 2 m/s 693 mmHg 41%
    13:00 +8°C° 0 mm 2 m/s 693 mmHg 42%
    14:00 +8°C° 0 mm 2 m/s 693 mmHg 42%
    15:00 +8°C° 0 mm 2 m/s 693 mmHg 43%
    16:00 +7°C° 0 mm 2 m/s 693 mmHg 46%
    17:00 +5°C° 0 mm 2 m/s 693 mmHg 49%
    18:00 +4°C° 0 mm 2 m/s 694 mmHg 52%
    19:00 +4°C° 0 mm 2 m/s 694 mmHg 53%
    20:00 +4°C° 0 mm 2 m/s 694 mmHg 55%
    21:00 +4°C° 0 mm 2 m/s 694 mmHg 56%
    22:00 +3°C° 0 mm 2 m/s 694 mmHg 57%
    23:00 +3°C° 0 mm 2 m/s 695 mmHg 57%
    Mostrar mais